Time,TemperatureF,DewpointF,PressureIn,WindDirection,WindDirectionDegrees,WindSpeedMPH,WindSpeedGustMPH,Humidity,HourlyPrecipIn,Conditions,Clouds,dailyrainin,SoftwareType,DateUTC
2013-07-17 00:01:00,72.0,48.0,29.98,South,173,10.0,16.0,43,0.00,,,0.00,,2013-07-17 06:01:00,
2013-07-17 00:11:00,72.0,48.0,29.98,South,173,10.0,16.0,43,0.00,,,0.00,,2013-07-17 06:11:00,
2013-07-17 00:22:00,71.0,48.0,29.98,South,182,11.0,19.0,44,0.00,,,0.00,,2013-07-17 06:22:00,
2013-07-17 00:32:00,71.0,49.0,29.98,South,173,12.0,18.0,46,0.00,,,0.00,,2013-07-17 06:32:00,
2013-07-17 00:43:00,71.0,49.0,29.98,South,173,12.0,18.0,46,0.00,,,0.00,,2013-07-17 06:43:00,
2013-07-17 00:52:00,71.0,50.0,29.98,South,183,11.0,18.0,47,0.00,,,0.00,,2013-07-17 06:52:00,
2013-07-17 01:01:00,70.0,50.0,29.98,South,175,9.0,16.0,49,0.00,,,0.00,,2013-07-17 07:01:00,
2013-07-17 01:11:00,70.0,50.0,29.98,South,175,9.0,16.0,49,0.00,,,0.00,,2013-07-17 07:11:00,
2013-07-17 01:22:00,70.0,50.0,29.98,South,176,13.0,17.0,50,0.00,,,0.00,,2013-07-17 07:22:00,
2013-07-17 01:32:00,70.0,51.0,29.98,South,180,13.0,19.0,51,0.00,,,0.00,,2013-07-17 07:32:00,
2013-07-17 01:42:00,70.0,51.0,29.98,South,180,13.0,19.0,51,0.00,,,0.00,,2013-07-17 07:42:00,
2013-07-17 01:52:00,70.0,52.0,29.98,South,190,12.0,17.0,52,0.00,,,0.00,,2013-07-17 07:52:00,
2013-07-17 02:01:00,69.0,51.0,29.98,South,185,9.0,15.0,53,0.00,,,0.00,,2013-07-17 08:01:00,
2013-07-17 02:11:00,69.0,51.0,29.98,South,185,9.0,15.0,53,0.00,,,0.00,,2013-07-17 08:11:00,
2013-07-17 02:22:00,69.0,52.0,29.98,South,185,8.0,12.0,54,0.00,,,0.00,,2013-07-17 08:22:00,
2013-07-17 02:32:00,69.0,52.0,29.98,South,185,8.0,12.0,54,0.00,,,0.00,,2013-07-17 08:32:00,
2013-07-17 02:43:00,69.0,52.0,29.98,South,185,8.0,12.0,54,0.00,,,0.00,,2013-07-17 08:43:00,
2013-07-17 02:53:00,69.0,51.0,29.97,South,171,6.0,8.0,53,0.00,,,0.00,,2013-07-17 08:53:00,
2013-07-17 03:02:00,69.0,52.0,29.98,SSE,166,2.0,4.0,54,0.00,,,0.00,,2013-07-17 09:02:00,
2013-07-17 03:12:00,69.0,52.0,29.98,SSE,166,2.0,4.0,54,0.00,,,0.00,,2013-07-17 09:12:00,
2013-07-17 03:22:00,68.0,51.0,29.98,NE,43,7.0,9.0,55,0.00,,,0.00,,2013-07-17 09:22:00,
2013-07-17 03:32:00,68.0,52.0,29.98,NE,43,6.0,10.0,56,0.00,,,0.00,,2013-07-17 09:32:00,
2013-07-17 03:43:00,68.0,52.0,29.98,NE,43,6.0,10.0,56,0.00,,,0.00,,2013-07-17 09:43:00,
2013-07-17 03:52:00,68.0,52.0,29.97,NE,43,5.0,8.0,56,0.00,,,0.00,,2013-07-17 09:52:00,
2013-07-17 04:01:00,68.0,51.0,29.97,ENE,63,5.0,10.0,55,0.00,,,0.00,,2013-07-17 10:01:00,
2013-07-17 04:11:00,68.0,51.0,29.97,ENE,63,5.0,10.0,55,0.00,,,0.00,,2013-07-17 10:11:00,
2013-07-17 04:22:00,68.0,52.0,29.98,ESE,123,2.0,12.0,56,0.00,,,0.00,,2013-07-17 10:22:00,
2013-07-17 04:32:00,66.0,53.0,29.98,ENE,74,10.0,14.0,62,0.00,,,0.00,,2013-07-17 10:32:00,
2013-07-17 04:43:00,66.0,53.0,29.98,ENE,74,10.0,14.0,62,0.00,,,0.00,,2013-07-17 10:43:00,
2013-07-17 04:52:00,66.0,53.0,29.98,ENE,78,9.0,17.0,63,0.00,,,0.00,,2013-07-17 10:52:00,
2013-07-17 05:01:00,66.0,53.0,29.98,ENE,70,12.0,15.0,64,0.00,,,0.00,,2013-07-17 11:01:00,
2013-07-17 05:11:00,66.0,53.0,29.98,ENE,70,12.0,15.0,64,0.00,,,0.00,,2013-07-17 11:11:00,
2013-07-17 05:22:00,65.0,53.0,29.98,ENE,60,12.0,16.0,66,0.00,,,0.00,,2013-07-17 11:22:00,
2013-07-17 05:32:00,65.0,53.0,29.98,ENE,59,11.0,14.0,65,0.00,,,0.00,,2013-07-17 11:32:00,
2013-07-17 05:42:00,65.0,53.0,29.98,ENE,59,11.0,14.0,65,0.00,,,0.00,,2013-07-17 11:42:00,
2013-07-17 05:52:00,65.0,53.0,29.99,ENE,61,14.0,16.0,65,0.00,,,0.00,,2013-07-17 11:52:00,
2013-07-17 06:01:00,65.0,53.0,29.99,ENE,63,18.0,22.0,65,0.00,,,0.00,,2013-07-17 12:01:00,
2013-07-17 06:12:00,65.0,53.0,29.99,ENE,63,18.0,22.0,65,0.00,,,0.00,,2013-07-17 12:12:00,
2013-07-17 06:22:00,65.0,53.0,29.99,ENE,69,15.0,19.0,65,0.00,,,0.00,,2013-07-17 12:22:00,
2013-07-17 06:32:00,65.0,53.0,30.00,NE,53,18.0,23.0,66,0.00,,,0.00,,2013-07-17 12:32:00,
2013-07-17 06:42:00,65.0,53.0,30.00,NE,53,18.0,23.0,66,0.00,,,0.00,,2013-07-17 12:42:00,
2013-07-17 06:53:00,64.0,53.0,30.00,NE,48,17.0,21.0,68,0.00,,,0.00,,2013-07-17 12:53:00,
2013-07-17 07:01:00,63.0,52.0,30.01,NE,53,13.0,19.0,67,0.00,,,0.00,,2013-07-17 13:01:00,
2013-07-17 07:12:00,63.0,52.0,30.01,NE,53,13.0,19.0,67,0.00,,,0.00,,2013-07-17 13:12:00,
2013-07-17 07:22:00,63.0,51.0,30.01,NE,51,11.0,14.0,65,0.00,,,0.00,,2013-07-17 13:22:00,
2013-07-17 07:32:00,64.0,52.0,30.02,NE,46,9.0,14.0,65,0.00,,,0.00,,2013-07-17 13:32:00,
2013-07-17 07:43:00,64.0,52.0,30.02,NE,46,9.0,14.0,65,0.00,,,0.00,,2013-07-17 13:43:00,
2013-07-17 07:52:00,64.0,52.0,30.02,NE,48,8.0,12.0,65,0.00,,,0.00,,2013-07-17 13:52:00,
2013-07-17 08:02:00,66.0,53.0,30.03,NE,42,8.0,13.0,62,0.00,,,0.00,,2013-07-17 14:02:00,
2013-07-17 08:11:00,66.0,53.0,30.03,NE,42,8.0,13.0,62,0.00,,,0.00,,2013-07-17 14:11:00,
2013-07-17 08:22:00,66.0,52.0,30.03,NE,42,14.0,17.0,61,0.00,,,0.00,,2013-07-17 14:22:00,
2013-07-17 08:32:00,65.0,52.0,30.03,NE,44,11.0,17.0,63,0.00,,,0.00,,2013-07-17 14:32:00,
2013-07-17 08:43:00,65.0,52.0,30.03,NE,44,11.0,17.0,63,0.00,,,0.00,,2013-07-17 14:43:00,
2013-07-17 08:52:00,67.0,54.0,30.03,NE,44,10.0,16.0,63,0.00,,,0.00,,2013-07-17 14:52:00,
2013-07-17 09:01:00,67.0,54.0,30.03,NE,44,13.0,16.0,64,0.00,,,0.00,,2013-07-17 15:01:00,
2013-07-17 09:12:00,67.0,54.0,30.03,NE,44,13.0,16.0,64,0.00,,,0.00,,2013-07-17 15:12:00,
2013-07-17 09:22:00,68.0,54.0,30.03,ENE,64,11.0,15.0,61,0.00,,,0.00,,2013-07-17 15:22:00,
2013-07-17 09:32:00,70.0,55.0,30.03,NE,50,11.0,19.0,58,0.00,,,0.00,,2013-07-17 15:32:00,
2013-07-17 09:42:00,70.0,55.0,30.03,NE,50,11.0,19.0,58,0.00,,,0.00,,2013-07-17 15:42:00,
2013-07-17 09:52:00,71.0,54.0,30.03,East,82,11.0,18.0,54,0.00,,,0.00,,2013-07-17 15:52:00,
2013-07-17 10:02:00,72.0,54.0,30.03,ENE,70,11.0,17.0,53,0.00,,,0.00,,2013-07-17 16:02:00,
2013-07-17 10:11:00,72.0,54.0,30.03,ENE,70,11.0,17.0,53,0.00,,,0.00,,2013-07-17 16:11:00,
2013-07-17 10:21:00,73.0,53.0,30.03,ENE,69,10.0,18.0,49,0.00,,,0.00,,2013-07-17 16:21:00,
2013-07-17 10:33:00,73.0,52.0,30.02,East,88,14.0,21.0,48,0.00,,,0.00,,2013-07-17 16:33:00,
2013-07-17 10:42:00,73.0,52.0,30.02,East,88,14.0,21.0,48,0.00,,,0.00,,2013-07-17 16:42:00,
2013-07-17 10:52:00,74.0,52.0,30.01,East,79,18.0,24.0,46,0.00,,,0.00,,2013-07-17 16:52:00,
2013-07-17 11:01:00,73.0,51.0,30.02,ENE,77,18.0,26.0,46,0.00,,,0.00,,2013-07-17 17:01:00,
2013-07-17 11:11:00,73.0,51.0,30.02,ENE,77,18.0,26.0,46,0.00,,,0.00,,2013-07-17 17:11:00,
2013-07-17 11:21:00,74.0,52.0,30.01,East,83,20.0,26.0,46,0.00,,,0.00,,2013-07-17 17:21:00,
2013-07-17 11:32:00,73.0,51.0,30.01,ENE,61,12.0,26.0,46,0.00,,,0.00,,2013-07-17 17:32:00,
2013-07-17 11:43:00,73.0,51.0,30.01,ENE,61,12.0,26.0,46,0.00,,,0.00,,2013-07-17 17:43:00,
2013-07-17 11:52:00,75.0,52.0,30.00,ENE,77,24.0,32.0,44,0.00,,,0.00,,2013-07-17 17:52:00,
2013-07-17 12:01:00,75.0,50.0,30.01,SE,131,7.0,14.0,42,0.00,,,0.00,,2013-07-17 18:01:00,
2013-07-17 12:11:00,75.0,50.0,30.01,SE,131,7.0,14.0,42,0.00,,,0.00,,2013-07-17 18:11:00,
2013-07-17 12:22:00,75.0,50.0,30.01,ESE,107,9.0,19.0,42,0.00,,,0.00,,2013-07-17 18:22:00,
2013-07-17 12:32:00,75.0,50.0,30.00,SSE,153,15.0,23.0,41,0.00,,,0.00,,2013-07-17 18:32:00,
2013-07-17 12:43:00,75.0,50.0,30.00,SSE,153,15.0,23.0,41,0.00,,,0.00,,2013-07-17 18:43:00,
2013-07-17 12:52:00,75.0,50.0,29.99,SE,138,13.0,25.0,41,0.00,,,0.00,,2013-07-17 18:52:00,
2013-07-17 13:01:00,75.0,50.0,29.99,SE,138,13.0,25.0,41,0.00,,,0.00,,2013-07-17 19:01:00,
2013-07-17 13:11:00,76.0,48.0,29.98,SSE,152,16.0,25.0,37,0.00,,,0.00,,2013-07-17 19:11:00,
2013-07-17 13:22:00,78.0,49.0,29.98,SE,136,10.0,20.0,36,0.00,,,0.00,,2013-07-17 19:22:00,
2013-07-17 13:32:00,78.0,49.0,29.98,SE,136,10.0,20.0,36,0.00,,,0.00,,2013-07-17 19:32:00,
2013-07-17 13:43:00,79.0,48.0,29.98,ENE,76,12.0,23.0,34,0.00,,,0.00,,2013-07-17 19:43:00,
2013-07-17 13:53:00,78.0,48.0,29.97,ESE,112,14.0,23.0,35,0.00,,,0.00,,2013-07-17 19:53:00,
2013-07-17 14:01:00,78.0,48.0,29.97,ESE,112,14.0,23.0,35,0.00,,,0.00,,2013-07-17 20:01:00,
2013-07-17 14:11:00,78.0,49.0,29.97,SE,146,10.0,18.0,36,0.00,,,0.00,,2013-07-17 20:11:00,
2013-07-17 14:22:00,75.0,54.0,29.95,SSE,150,29.0,35.0,48,0.00,,,0.00,,2013-07-17 20:22:00,
2013-07-17 14:33:00,75.0,54.0,29.95,SSE,150,29.0,35.0,48,0.00,,,0.00,,2013-07-17 20:33:00,
2013-07-17 14:43:00,73.0,52.0,29.94,SSE,153,37.0,43.0,48,0.00,,,0.00,,2013-07-17 20:43:00,
2013-07-17 14:52:00,73.0,52.0,29.95,SSE,153,36.0,42.0,48,0.00,,,0.00,,2013-07-17 20:52:00,
2013-07-17 15:01:00,73.0,52.0,29.95,SSE,153,36.0,42.0,48,0.00,,,0.00,,2013-07-17 21:01:00,
2013-07-17 15:12:00,74.0,52.0,29.94,SE,135,33.0,39.0,46,0.00,,,0.00,,2013-07-17 21:12:00,
2013-07-17 15:22:00,76.0,51.0,29.94,SE,126,21.0,36.0,41,0.00,,,0.00,,2013-07-17 21:22:00,
2013-07-17 15:32:00,76.0,51.0,29.94,SE,126,21.0,36.0,41,0.00,,,0.00,,2013-07-17 21:32:00,
2013-07-17 15:42:00,75.0,52.0,29.94,ESE,110,26.0,39.0,44,0.00,,,0.00,,2013-07-17 21:42:00,
2013-07-17 15:52:00,75.0,52.0,29.94,SE,142,24.0,34.0,44,0.00,,,0.00,,2013-07-17 21:52:00,
2013-07-17 16:01:00,75.0,52.0,29.94,SE,142,24.0,34.0,44,0.00,,,0.00,,2013-07-17 22:01:00,
2013-07-17 16:11:00,75.0,50.0,29.95,SE,142,23.0,32.0,41,0.00,,,0.00,,2013-07-17 22:11:00,
2013-07-17 16:21:00,76.0,51.0,29.95,ESE,119,16.0,25.0,41,0.00,,,0.00,,2013-07-17 22:21:00,
2013-07-17 16:32:00,76.0,51.0,29.95,ESE,119,16.0,25.0,41,0.00,,,0.00,,2013-07-17 22:32:00,
2013-07-17 16:43:00,76.0,50.0,29.94,SE,145,13.0,28.0,40,0.00,,,0.00,,2013-07-17 22:43:00,
2013-07-17 16:53:00,74.0,51.0,29.93,SE,142,29.0,34.0,44,0.00,,,0.00,,2013-07-17 22:53:00,
2013-07-17 17:01:00,74.0,51.0,29.93,SE,142,29.0,34.0,44,0.00,,,0.00,,2013-07-17 23:01:00,
2013-07-17 17:11:00,76.0,51.0,29.94,SE,129,20.0,28.0,41,0.00,,,0.00,,2013-07-17 23:11:00,
2013-07-17 17:22:00,75.0,50.0,29.93,SSE,149,21.0,25.0,42,0.00,,,0.00,,2013-07-17 23:22:00,
2013-07-17 17:32:00,75.0,50.0,29.93,SSE,149,21.0,25.0,42,0.00,,,0.00,,2013-07-17 23:32:00,
2013-07-17 17:43:00,75.0,50.0,29.93,ESE,122,15.0,26.0,41,0.00,,,0.00,,2013-07-17 23:43:00,
2013-07-17 17:52:00,75.0,49.0,29.94,SE,136,15.0,22.0,40,0.00,,,0.00,,2013-07-17 23:52:00,
2013-07-17 18:01:00,75.0,49.0,29.94,SE,136,15.0,22.0,40,0.00,,,0.00,,2013-07-18 00:01:00,
2013-07-17 18:11:00,74.0,49.0,29.94,SE,133,22.0,28.0,42,0.00,,,0.00,,2013-07-18 00:11:00,
2013-07-17 18:22:00,73.0,52.0,29.94,SE,130,21.0,27.0,47,0.00,,,0.00,,2013-07-18 00:22:00,
2013-07-17 18:33:00,73.0,52.0,29.94,SE,130,21.0,27.0,47,0.00,,,0.00,,2013-07-18 00:33:00,
2013-07-17 18:43:00,73.0,50.0,29.94,SE,134,15.0,20.0,44,0.00,,,0.00,,2013-07-18 00:43:00,
2013-07-17 18:52:00,73.0,49.0,29.94,ESE,117,15.0,20.0,43,0.00,,,0.00,,2013-07-18 00:52:00,
2013-07-17 19:01:00,73.0,49.0,29.94,ESE,117,15.0,20.0,43,0.00,,,0.00,,2013-07-18 01:01:00,
2013-07-17 19:11:00,73.0,50.0,29.95,SE,134,17.0,20.0,45,0.00,,,0.00,,2013-07-18 01:11:00,
2013-07-17 19:22:00,71.0,51.0,29.94,SE,136,23.0,29.0,49,0.00,,,0.00,,2013-07-18 01:22:00,
2013-07-17 19:32:00,71.0,51.0,29.94,SE,136,23.0,29.0,49,0.00,,,0.00,,2013-07-18 01:32:00,
2013-07-17 19:42:00,70.0,52.0,29.95,SE,144,24.0,32.0,52,0.00,,,0.00,,2013-07-18 01:42:00,
2013-07-17 19:53:00,70.0,51.0,29.96,SE,140,19.0,31.0,51,0.00,,,0.00,,2013-07-18 01:53:00,
2013-07-17 20:01:00,70.0,51.0,29.96,SE,140,19.0,31.0,51,0.00,,,0.00,,2013-07-18 02:01:00,
2013-07-17 20:11:00,70.0,50.0,29.97,SSE,151,17.0,28.0,50,0.00,,,0.00,,2013-07-18 02:11:00,
2013-07-17 20:21:00,70.0,50.0,29.97,SSE,153,16.0,24.0,49,0.00,,,0.00,,2013-07-18 02:21:00,
2013-07-17 20:32:00,70.0,50.0,29.97,SSE,153,16.0,24.0,49,0.00,,,0.00,,2013-07-18 02:32:00,
2013-07-17 20:43:00,70.0,49.0,29.98,ESE,121,11.0,17.0,48,0.00,,,0.00,,2013-07-18 02:43:00,
2013-07-17 20:52:00,70.0,50.0,29.99,ESE,119,3.0,12.0,49,0.00,,,0.00,,2013-07-18 02:52:00,
2013-07-17 21:01:00,70.0,50.0,29.99,ESE,119,3.0,12.0,49,0.00,,,0.00,,2013-07-18 03:01:00,
2013-07-17 21:11:00,69.0,51.0,30.00,SSE,155,6.0,15.0,53,0.00,,,0.00,,2013-07-18 03:11:00,
2013-07-17 21:22:00,69.0,52.0,30.00,SSE,154,1.0,8.0,54,0.00,,,0.00,,2013-07-18 03:22:00,
2013-07-17 21:32:00,69.0,52.0,30.00,SSE,154,1.0,8.0,54,0.00,,,0.00,,2013-07-18 03:32:00,
2013-07-17 21:43:00,69.0,53.0,30.01,West,260,6.0,9.0,56,0.00,,,0.00,,2013-07-18 03:43:00,
2013-07-17 21:52:00,68.0,54.0,30.01,SSW,205,7.0,14.0,60,0.00,,,0.00,,2013-07-18 03:52:00,
2013-07-17 22:02:00,68.0,54.0,30.01,SSW,205,7.0,14.0,60,0.00,,,0.00,,2013-07-18 04:02:00,
2013-07-17 22:12:00,68.0,54.0,30.02,South,183,12.0,17.0,61,0.00,,,0.00,,2013-07-18 04:12:00,
2013-07-17 22:22:00,68.0,54.0,30.03,South,169,4.0,13.0,61,0.00,,,0.00,,2013-07-18 04:22:00,
2013-07-17 22:32:00,68.0,54.0,30.03,South,169,4.0,13.0,61,0.00,,,0.00,,2013-07-18 04:32:00,
2013-07-17 22:43:00,68.0,54.0,30.03,SSE,165,5.0,9.0,61,0.00,,,0.00,,2013-07-18 04:43:00,
2013-07-17 22:52:00,68.0,55.0,30.03,SSE,163,7.0,9.0,64,0.00,,,0.00,,2013-07-18 04:52:00,
2013-07-17 23:02:00,68.0,55.0,30.03,SSE,163,7.0,9.0,64,0.00,,,0.00,,2013-07-18 05:02:00,
2013-07-17 23:11:00,68.0,56.0,30.03,SE,140,12.0,15.0,65,0.00,,,0.00,,2013-07-18 05:11:00,
2013-07-17 23:21:00,67.0,55.0,30.03,SE,142,14.0,20.0,66,0.00,,,0.00,,2013-07-18 05:21:00,
2013-07-17 23:32:00,67.0,55.0,30.03,SE,142,14.0,20.0,66,0.00,,,0.00,,2013-07-18 05:32:00,
2013-07-17 23:42:00,67.0,55.0,30.03,SSE,148,12.0,16.0,66,0.00,,,0.00,,2013-07-18 05:42:00,
2013-07-17 23:52:00,67.0,55.0,30.03,SE,126,10.0,14.0,65,0.00,,,0.00,,2013-07-18 05:52:00,